Home   Weather   Colonia Columbus   Past weeks
Flag for Argentina

Past Weather in Colonia Columbus, Córdoba, Argentina — Yesterday and Last 2 Weeks

Now
69 °F

Partly sunny.


Feels Like: 69 °F
Forecast: 74 / 53 °F
Wind: No wind

Location: Cordoba Aerodrome

Current Time: Feb 21, 2020 at 1:21:53 pm

Latest Report: Feb 21, 2020 at 12:00 pm


Visibility: 9 mi

Pressure: 30.33 "Hg

Humidity: 43%

Dew Point: 45 °F

Location of Colonia ColumbusLocation

Past Weather in Colonia Columbus — Graph

°F

Colonia Columbus Temperature Yesterday

Maximum temperature yesterday: 72 °F (at 4:00 pm)
Minimum temperature yesterday: 62 °F (at 1:00 am)
Average temperature yesterday: 67 °F

High & Low Weather Summary for the Past Weeks

 TemperatureHumidityPressure
High88 °F (Feb 16, 4:00 pm)100% (Feb 7, 3:00 am)30.34 "Hg (Feb 7, 3:00 am)
Low55 °F (Feb 19, 7:00 am)29% (Feb 18, 11:00 am)29.44 "Hg (Feb 17, 5:00 pm)
Average71 °F79%29.91 "Hg
* Reported Feb 6 11:00 am — Feb 21 11:00 am, Colonia Columbus. Weather by CustomWeather, © 2020

Note: Actual official high and low records may vary slightly from our data, if they occured in-between our weather recording intervals... More about our weather records

Colonia Columbus Weather History for the Previous 24 Hours

Scroll right to see more
 ConditionsComfort  
Time TempWeatherWind HumidityBarometerVisibility
11:00 am
Fri, Feb 21
64 °FPartly sunny.6 mph50%30.34 "Hg9 mi
10:00 am64 °FPartly sunny.3 mph58%30.33 "Hg7 mi
9:00 am61 °FPartly sunny.No wind72%30.33 "Hg6 mi
8:00 am60 °FOvercast.N/A78%30.32 "Hg7 mi
7:00 am58 °FOvercast.No wind78%30.29 "Hg6 mi
6:00 am58 °FPassing clouds.5 mph76%30.26 "Hg6 mi
5:00 am61 °FPassing clouds.3 mph74%30.25 "Hg6 mi
4:00 am62 °FPassing clouds.No wind82%30.24 "Hg6 mi
3:00 am62 °FPassing clouds.No wind85%30.25 "Hg6 mi
2:00 am62 °FPassing clouds.No wind77%30.25 "Hg6 mi
1:00 am62 °FPassing clouds.No wind69%30.26 "Hg6 mi
12:00 am63 °FPassing clouds.3 mph70%30.24 "Hg6 mi
11:00 pm
Thu, Feb 20
64 °FPassing clouds.5 mph71%30.23 "Hg6 mi
10:00 pm64 °FPassing clouds.5 mph73%30.21 "Hg6 mi
9:00 pm64 °FPassing clouds.3 mph73%30.17 "Hg6 mi
8:00 pm65 °FScattered clouds.5 mph66%30.13 "Hg9 mi
7:00 pm69 °FPartly sunny.6 mph57%30.10 "Hg9 mi
6:00 pm71 °FPartly sunny.8 mph53%30.09 "Hg9 mi
5:00 pm72 °FPartly sunny.8 mph56%30.09 "Hg9 mi
4:00 pm72 °FOvercast.8 mph55%30.11 "Hg9 mi
3:00 pm72 °FOvercast.7 mph54%30.13 "Hg9 mi
2:00 pm72 °FOvercast.6 mph52%30.15 "Hg9 mi
1:00 pm69 °FOvercast.7 mph56%30.16 "Hg9 mi
Weather by CustomWeather, © 2020

See weather overview

Advertising